International Skating Union - Official Site

ISU World Cup Seoul
November 21-23, 2014

Draw | Lap Times | Index | World Cup

Referee: Jan  BOLT  (NED)
Starter: Yoshihiro  KITAZAWA  (JPN)
StartTime: EndTime: Air Temp: Ice Temp: Humidity:
09:00 15℃ -6.6℃ 46%
Result 10000m Men Division B
Rankings as of Nov 23 2014 3:56PM
Rank: No.: Name: Nation: Time: Behind: Points:
1 170 Erik Jan  Kooiman NED NED 13:19.09400m - 37.85 - (37.8)
800m - 1:10.39 - (32.5)
1200m - 1:43.01 - (32.6)
1600m - 2:14.86 - (31.8)
2000m - 2:46.65 - (31.7)
2400m - 3:18.28 - (31.6)
2800m - 3:49.90 - (31.6)
3200m - 4:21.45 - (31.5)
3600m - 4:53.04 - (31.5)
4000m - 5:24.50 - (31.4)
4400m - 5:56.33 - (31.8)
4800m - 6:28.18 - (31.8)
5200m - 6:59.93 - (31.7)
5600m - 7:31.55 - (31.6)
6000m - 8:03.43 - (31.8)
6400m - 8:35.05 - (31.6)
6800m - 9:06.68 - (31.6)
7200m - 9:38.31 - (31.6)
7600m - 10:10.14 - (31.8)
8000m - 10:42.05 - (31.9)
8400m - 11:13.89 - (31.8)
8800m - 11:45.46 - (31.5)
9200m - 12:16.99 - (31.5)
9600m - 12:48.20 - (31.2)
10000m - 13:19.09 - (30.8)
32
2 168 Jouke  Hoogeveen NED NED 13:32.50400m - 38.10 - (38.1)
800m - 1:10.27 - (32.1)
1200m - 1:42.69 - (32.4)
1600m - 2:15.23 - (32.5)
2000m - 2:47.27 - (32.0)
2400m - 3:19.00 - (31.7)
2800m - 3:51.36 - (32.3)
3200m - 4:23.37 - (32.0)
3600m - 4:55.61 - (32.2)
4000m - 5:27.79 - (32.1)
4400m - 5:59.83 - (32.0)
4800m - 6:32.01 - (32.1)
5200m - 7:03.58 - (31.5)
5600m - 7:35.49 - (31.9)
6000m - 8:07.56 - (32.0)
6400m - 8:39.67 - (32.1)
6800m - 9:11.55 - (31.8)
7200m - 9:44.04 - (32.4)
7600m - 10:16.12 - (32.0)
8000m - 10:48.60 - (32.4)
8400m - 11:21.48 - (32.8)
8800m - 11:54.56 - (33.0)
9200m - 12:27.22 - (32.6)
9600m - 13:00.11 - (32.8)
10000m - 13:32.50 - (32.3)
13.41 27
3 106 Ted-Jan  Bloemen CAN CAN 13:35.77400m - 34.51 - (34.5)
800m - 1:05.79 - (31.2)
1200m - 1:37.76 - (31.9)
1600m - 2:10.03 - (32.2)
2000m - 2:42.19 - (32.1)
2400m - 3:14.35 - (32.1)
2800m - 3:46.86 - (32.5)
3200m - 4:19.35 - (32.4)
3600m - 4:51.94 - (32.5)
4000m - 5:24.57 - (32.6)
4400m - 5:57.12 - (32.5)
4800m - 6:29.65 - (32.5)
5200m - 7:02.71 - (33.0)
5600m - 7:35.50 - (32.7)
6000m - 8:08.40 - (32.8)
6400m - 8:41.12 - (32.7)
6800m - 9:13.84 - (32.7)
7200m - 9:46.49 - (32.6)
7600m - 10:19.15 - (32.6)
8000m - 10:52.02 - (32.8)
8400m - 11:24.79 - (32.7)
8800m - 11:57.45 - (32.6)
9200m - 12:30.09 - (32.6)
9600m - 13:02.30 - (32.2)
10000m - 13:35.77 - (32.4)
16.68 23
4 124 Alexej  Baumgärtner GER GER 13:40.33400m - 35.12 - (35.1)
800m - 1:06.29 - (31.1)
1200m - 1:38.63 - (32.3)
1600m - 2:10.89 - (32.2)
2000m - 2:43.22 - (32.3)
2400m - 3:15.70 - (32.4)
2800m - 3:48.30 - (32.6)
3200m - 4:20.91 - (32.6)
3600m - 4:53.64 - (32.7)
4000m - 5:26.27 - (32.6)
4400m - 5:59.18 - (32.9)
4800m - 6:31.89 - (32.7)
5200m - 7:04.75 - (32.8)
5600m - 7:37.76 - (33.0)
6000m - 8:10.78 - (33.0)
6400m - 8:43.73 - (32.9)
6800m - 9:16.47 - (32.7)
7200m - 9:49.06 - (32.5)
7600m - 10:21.98 - (32.9)
8000m - 10:54.87 - (32.8)
8400m - 11:28.12 - (33.2)
8800m - 12:01.44 - (33.3)
9200m - 12:34.77 - (33.3)
9600m - 13:07.86 - (33.0)
10000m - 13:40.33 - (32.4)
21.24 19
5 181 Frank  Vreugdenhil NED NED 13:47.74400m - 35.99 - (35.9)
800m - 1:08.12 - (32.1)
1200m - 1:40.37 - (32.2)
1600m - 2:12.47 - (32.0)
2000m - 2:44.76 - (32.2)
2400m - 3:17.01 - (32.2)
2800m - 3:49.42 - (32.4)
3200m - 4:21.69 - (32.2)
3600m - 4:54.17 - (32.4)
4000m - 5:26.52 - (32.3)
4400m - 5:58.87 - (32.3)
4800m - 6:31.42 - (32.5)
5200m - 7:04.25 - (32.8)
5600m - 7:36.77 - (32.5)
6000m - 8:10.29 - (33.5)
6400m - 8:43.94 - (33.6)
6800m - 9:18.23 - (34.2)
7200m - 9:52.17 - (33.9)
7600m - 10:26.12 - (33.9)
8000m - 10:59.77 - (33.6)
8400m - 11:33.46 - (33.6)
8800m - 12:06.95 - (33.4)
9200m - 12:40.64 - (33.6)
9600m - 13:14.25 - (33.6)
10000m - 13:47.74 - (33.4)
28.65 15
6 202 Danil  Sinitsyn RUS RUS 13:55.95400m - 37.10 - (37.1)
800m - 1:11.20 - (34.1)
1200m - 1:45.23 - (34.0)
1600m - 2:18.76 - (33.5)
2000m - 2:52.05 - (33.2)
2400m - 3:25.16 - (33.1)
2800m - 3:58.72 - (33.5)
3200m - 4:31.87 - (33.1)
3600m - 5:04.82 - (32.9)
4000m - 5:37.86 - (33.0)
4400m - 6:11.06 - (33.1)
4800m - 6:44.03 - (32.9)
5200m - 7:17.13 - (33.1)
5600m - 7:50.01 - (32.8)
6000m - 8:23.02 - (33.0)
6400m - 8:56.10 - (33.0)
6800m - 9:29.25 - (33.1)
7200m - 10:02.47 - (33.2)
7600m - 10:35.86 - (33.3)
8000m - 11:09.57 - (33.7)
8400m - 11:43.61 - (34.0)
8800m - 12:17.65 - (34.0)
9200m - 12:51.60 - (33.9)
9600m - 13:24.88 - (33.2)
10000m - 13:55.95 - (31.0)
36.86 11
7 193 Sergey  Gryaztsov RUS RUS 14:03.79400m - 36.85 - (36.8)
800m - 1:10.53 - (33.6)
1200m - 1:44.25 - (33.7)
1600m - 2:17.78 - (33.5)
2000m - 2:50.87 - (33.0)
2400m - 3:24.13 - (33.2)
2800m - 3:57.42 - (33.2)
3200m - 4:30.92 - (33.5)
3600m - 5:04.29 - (33.3)
4000m - 5:37.83 - (33.5)
4400m - 6:11.27 - (33.4)
4800m - 6:44.90 - (33.6)
5200m - 7:18.41 - (33.5)
5600m - 7:52.16 - (33.7)
6000m - 8:25.75 - (33.5)
6400m - 8:59.56 - (33.8)
6800m - 9:33.19 - (33.6)
7200m - 10:06.89 - (33.6)
7600m - 10:40.62 - (33.7)
8000m - 11:14.35 - (33.7)
8400m - 11:48.04 - (33.6)
8800m - 12:21.94 - (33.9)
9200m - 12:55.68 - (33.7)
9600m - 13:30.00 - (34.3)
10000m - 14:03.79 - (33.7)
44.70 9
8 205 Martin  Hänggi SUI SUI 14:04.66400m - 36.19 - (36.1)
800m - 1:08.73 - (32.5)
1200m - 1:41.93 - (33.2)
1600m - 2:14.87 - (32.9)
2000m - 2:48.03 - (33.1)
2400m - 3:21.84 - (33.8)
2800m - 3:55.91 - (34.0)
3200m - 4:29.58 - (33.6)
3600m - 5:03.40 - (33.8)
4000m - 5:37.10 - (33.7)
4400m - 6:11.13 - (34.0)
4800m - 6:45.02 - (33.8)
5200m - 7:18.35 - (33.3)
5600m - 7:51.20 - (32.8)
6000m - 8:24.21 - (33.0)
6400m - 8:57.29 - (33.0)
6800m - 9:30.78 - (33.4)
7200m - 10:04.55 - (33.7)
7600m - 10:38.51 - (33.9)
8000m - 11:12.76 - (34.2)
8400m - 11:46.86 - (34.1)
8800m - 12:20.96 - (34.1)
9200m - 12:55.45 - (34.4)
9600m - 13:29.91 - (34.4)
10000m - 14:04.66 - (34.7)
45.57 7
9 134 Luca  Stefani ITA ITA 14:07.54400m - 37.15 - (37.1)
800m - 1:10.55 - (33.3)
1200m - 1:44.08 - (33.5)
1600m - 2:17.64 - (33.5)
2000m - 2:51.07 - (33.4)
2400m - 3:24.98 - (33.9)
2800m - 3:58.39 - (33.4)
3200m - 4:31.83 - (33.4)
3600m - 5:05.37 - (33.5)
4000m - 5:39.17 - (33.8)
4400m - 6:12.95 - (33.7)
4800m - 6:46.80 - (33.8)
5200m - 7:20.53 - (33.7)
5600m - 7:54.79 - (34.2)
6000m - 8:28.92 - (34.1)
6400m - 9:03.17 - (34.2)
6800m - 9:36.86 - (33.6)
7200m - 10:10.47 - (33.6)
7600m - 10:44.21 - (33.7)
8000m - 11:18.28 - (34.0)
8400m - 11:52.43 - (34.1)
8800m - 12:26.49 - (34.0)
9200m - 13:00.27 - (33.7)
9600m - 13:34.02 - (33.7)
10000m - 14:07.54 - (33.5)
48.45 6
10 145 Shane  Williamson JPN JPN 14:08.09400m - 37.50 - (37.5)
800m - 1:10.51 - (33.0)
1200m - 1:44.55 - (34.0)
1600m - 2:18.08 - (33.5)
2000m - 2:52.34 - (34.2)
2400m - 3:26.15 - (33.8)
2800m - 4:00.22 - (34.0)
3200m - 4:33.98 - (33.7)
3600m - 5:07.95 - (33.9)
4000m - 5:41.70 - (33.7)
4400m - 6:15.79 - (34.0)
4800m - 6:49.77 - (33.9)
5200m - 7:23.88 - (34.1)
5600m - 7:57.81 - (33.9)
6000m - 8:31.75 - (33.9)
6400m - 9:05.28 - (33.5)
6800m - 9:38.89 - (33.6)
7200m - 10:12.53 - (33.6)
7600m - 10:46.71 - (34.1)
8000m - 11:20.89 - (34.1)
8400m - 11:54.86 - (33.9)
8800m - 12:28.32 - (33.4)
9200m - 13:02.15 - (33.8)
9600m - 13:35.40 - (33.2)
10000m - 14:08.09 - (32.6)
49.00 5
11 142 Masahito  Obayashi JPN JPN 14:08.14400m - 37.02 - (37.0)
800m - 1:10.72 - (33.6)
1200m - 1:44.24 - (33.5)
1600m - 2:18.23 - (33.9)
2000m - 2:51.92 - (33.6)
2400m - 3:25.81 - (33.8)
2800m - 3:59.57 - (33.7)
3200m - 4:33.63 - (34.0)
3600m - 5:07.33 - (33.6)
4000m - 5:41.52 - (34.1)
4400m - 6:15.07 - (33.5)
4800m - 6:49.03 - (33.9)
5200m - 7:22.86 - (33.8)
5600m - 7:56.77 - (33.9)
6000m - 8:30.76 - (33.9)
6400m - 9:04.65 - (33.8)
6800m - 9:38.27 - (33.6)
7200m - 10:12.29 - (34.0)
7600m - 10:45.89 - (33.6)
8000m - 11:20.00 - (34.1)
8400m - 11:54.25 - (34.2)
8800m - 12:28.37 - (34.1)
9200m - 13:02.13 - (33.7)
9600m - 13:35.78 - (33.6)
10000m - 14:08.14 - (32.3)
49.05 4
12 187 Sebastian  Druszkiewicz POL POL 14:09.78400m - 36.49 - (36.4)
800m - 1:09.04 - (32.5)
1200m - 1:42.16 - (33.1)
1600m - 2:15.43 - (33.2)
2000m - 2:48.42 - (32.9)
2400m - 3:21.62 - (33.2)
2800m - 3:54.62 - (33.0)
3200m - 4:28.04 - (33.4)
3600m - 5:01.37 - (33.3)
4000m - 5:34.78 - (33.4)
4400m - 6:08.50 - (33.7)
4800m - 6:42.36 - (33.8)
5200m - 7:16.48 - (34.1)
5600m - 7:50.46 - (33.9)
6000m - 8:24.43 - (33.9)
6400m - 8:58.75 - (34.3)
6800m - 9:33.17 - (34.4)
7200m - 10:07.58 - (34.4)
7600m - 10:42.03 - (34.4)
8000m - 11:16.67 - (34.6)
8400m - 11:51.46 - (34.7)
8800m - 12:26.17 - (34.7)
9200m - 13:00.45 - (34.2)
9600m - 13:35.38 - (34.9)
10000m - 14:09.78 - (34.3)
50.69 3
13 117 Yiming  Liu CHN CHN 14:14.74400m - 36.95 - (36.9)
800m - 1:09.21 - (32.2)
1200m - 1:41.82 - (01.8)
1600m - 2:14.62 - (32.8)
2000m - 2:47.65 - (33.0)
2400m - 3:20.85 - (33.1)
2800m - 3:54.06 - (33.2)
3200m - 4:27.25 - (33.1)
3600m - 5:00.60 - (33.3)
4000m - 5:34.05 - (33.4)
4400m - 6:07.61 - (33.5)
4800m - 6:41.12 - (33.5)
5200m - 7:14.81 - (33.6)
5600m - 7:48.59 - (33.7)
6000m - 8:22.69 - (34.1)
6400m - 8:57.15 - (34.4)
6800m - 9:32.29 - (35.1)
7200m - 10:07.89 - (35.6)
7600m - 10:43.82 - (35.9)
8000m - 11:19.89 - (36.0)
8400m - 11:55.85 - (35.9)
8800m - 12:31.17 - (35.3)
9200m - 13:06.27 - (35.1)
9600m - 13:40.91 - (34.6)
10000m - 14:14.74 - (33.8)
55.65 2
14 208 Edwin  Park USA USA 14:17.93400m - 37.75 - (37.7)
800m - 1:10.68 - (32.9)
1200m - 1:44.04 - (33.3)
1600m - 2:16.82 - (32.7)
2000m - 2:50.50 - (33.6)
2400m - 3:24.15 - (33.6)
2800m - 3:58.00 - (33.8)
3200m - 4:31.42 - (33.4)
3600m - 5:05.51 - (34.0)
4000m - 5:38.97 - (33.4)
4400m - 6:12.96 - (33.9)
4800m - 6:46.77 - (33.8)
5200m - 7:21.04 - (34.2)
5600m - 7:55.55 - (34.5)
6000m - 8:29.74 - (34.1)
6400m - 9:03.92 - (34.1)
6800m - 9:37.85 - (33.9)
7200m - 10:11.78 - (33.9)
7600m - 10:45.97 - (34.1)
8000m - 11:20.15 - (34.1)
8400m - 11:54.61 - (34.4)
8800m - 12:30.19 - (35.5)
9200m - 13:06.15 - (35.9)
9600m - 13:42.39 - (36.2)
10000m - 14:17.93 - (35.5)
58.84 1
15 157 Byung-Wook  Ko KOR KOR 14:20.10400m - 37.70 - (37.7)
800m - 1:11.33 - (33.6)
1200m - 1:44.76 - (33.4)
1600m - 2:18.18 - (33.4)
2000m - 2:52.00 - (33.8)
2400m - 3:25.43 - (33.4)
2800m - 3:59.32 - (33.8)
3200m - 4:33.36 - (34.0)
3600m - 5:07.29 - (33.9)
4000m - 5:41.22 - (33.9)
4400m - 6:14.92 - (33.6)
4800m - 6:48.79 - (33.8)
5200m - 7:22.64 - (33.8)
5600m - 7:56.66 - (34.0)
6000m - 8:30.58 - (33.9)
6400m - 9:04.62 - (34.0)
6800m - 9:38.57 - (33.9)
7200m - 10:12.69 - (34.1)
7600m - 10:46.93 - (34.2)
8000m - 11:21.27 - (34.3)
8400m - 11:56.15 - (34.8)
8800m - 12:31.59 - (35.4)
9200m - 13:07.26 - (35.6)
9600m - 13:43.58 - (36.3)
10000m - 14:20.10 - (36.5)
61.01 0
16 161 Sung Kwang  Park KOR KOR 14:46.68400m - 37.45 - (37.4)
800m - 1:10.07 - (32.6)
1200m - 1:43.30 - (33.2)
1600m - 2:16.84 - (33.5)
2000m - 2:50.60 - (33.7)
2400m - 3:24.44 - (33.8)
2800m - 3:58.75 - (34.3)
3200m - 4:33.16 - (34.4)
3600m - 5:08.28 - (35.1)
4000m - 5:43.74 - (35.4)
4400m - 6:19.33 - (35.5)
4800m - 6:55.18 - (35.8)
5200m - 7:31.35 - (36.1)
5600m - 8:07.27 - (35.9)
6000m - 8:43.70 - (36.4)
6400m - 9:20.09 - (36.3)
6800m - 9:56.41 - (36.3)
7200m - 10:32.47 - (36.0)
7600m - 11:08.92 - (36.4)
8000m - 11:45.44 - (36.5)
8400m - 12:22.28 - (36.8)
8800m - 12:58.75 - (36.4)
9200m - 13:35.00 - (36.2)
9600m - 14:10.98 - (35.9)
10000m - 14:46.68 - (35.7)
87.59 0
17 186 Roland  Cieslak POL POL DQ400m - 37.45 - (37.4)
800m - 1:11.12 - (33.6)
1200m - 1:44.67 - (33.5)
1600m - 2:18.41 - (33.7)
2000m - 2:51.87 - (33.4)
2400m - 3:25.89 - (34.0)
2800m - 3:59.62 - (33.7)
3200m - 4:33.75 - (34.1)
3600m - 5:08.18 - (34.4)
4000m - 5:42.62 - (34.4)
4400m - 6:18.05 - (35.4)
4800m - 6:53.45 - (35.3)
5200m - 7:28.54 - (35.0)
5600m - 8:03.96 - (35.4)
6000m - 8:39.14 - (35.1)
6400m - 9:14.75 - (35.6)
6800m - 9:50.84 - (36.0)
7200m - 10:26.69 - (35.8)
7600m - 11:02.41 - (35.7)
8000m - 11:37.18 - (34.7)
8400m - 12:11.82 - (34.6)
8800m - 12:45.97 - (34.1)
9200m - 13:19.48 - (33.5)
9600m - 13:52.97 - (33.4)
10000m - 14:25.59 - (32.6)
0